Weather History for Blythe, CA

Change the Weather History Date:

Friday, May 31, 2013

  Actual Average Record
Temperature  
Mean Temperature 86 °F -  
Max Temperature 100 °F 98 °F 111 °F (1997)
Min Temperature 73 °F 67 °F 55 °F (1980)
Cooling Degree Days 22    
Growing Degree Days 36 (Base 50)    
Moisture  
Dew Point 52 °F    
Average Humidity 32    
Maximum Humidity 53    
Minimum Humidity 16    
Precipitation  
Precipitation 0.00 in - - ()
Sea Level Pressure  
Sea Level Pressure 29.74 in    
Wind  
Wind Speed 8 mph (SSE)    
Max Wind Speed 14 mph    
Max Gust Speed -    
Visibility 10 miles    
Events      
Averages and records for this station are not official NWS values.
T = Trace of Precipitation, MM = Missing Value Source: NWS Daily Summary

Daily Weather History Graph

Daily Weather History Graph

Search for Another Location

Airport:

Trip Planner

Search our weather history database for the weather conditions in past years. The results will help you decide how hot, cold, wet, or windy it might be!

Date:

Astronomy

May. 31, 2013 Rise Set
Actual Time 5:29 AM PDT 7:43 PM PDT
Civil Twilight 5:01 AM PDT 8:12 PM PDT
Nautical Twilight 4:26 AM PDT 8:47 PM PDT
Astronomical Twilight 3:48 AM PDT 9:24 PM PDT
Moon 12:34 AM PDT (5/31) 12:34 PM PDT (5/31)
Length of Visible Light 15h 10m
Length of Day
14h 13m
Waning Gibbous, 50% of the Moon is Illuminated
May 31
Waning Gibbous
May 31
Last Quarter
Jun 8
New
Jun 16
First Quarter
Jun 23
Full

Hourly Weather History & Observations

Time (PDT) Temp. Heat Index Dew Point Humidity Pressure Visibility Wind Dir Wind Speed Gust Speed Precip Events Conditions
12:52 AM 81.0 °F 80.7 °F 55.0 °F 41% 29.72 in 10.0 mi South 13.8 mph - N/A   Clear
1:52 AM 79.0 °F - 55.9 °F 45% 29.72 in 10.0 mi South 11.5 mph - N/A   Clear
2:52 AM 77.0 °F - 55.9 °F 48% 29.72 in 10.0 mi South 11.5 mph - N/A   Clear
3:52 AM 75.9 °F - 55.9 °F 50% 29.73 in 10.0 mi South 9.2 mph - N/A   Clear
4:52 AM 73.9 °F - 55.9 °F 53% 29.73 in 10.0 mi South 6.9 mph - N/A   Clear
5:52 AM 73.9 °F - 54.0 °F 50% 29.75 in 10.0 mi SSW 4.6 mph - N/A   Clear
6:52 AM 78.1 °F - 54.0 °F 43% 29.78 in 10.0 mi South 5.8 mph - N/A   Clear
7:52 AM 81.0 °F 80.7 °F 55.0 °F 41% 29.80 in 10.0 mi South 8.1 mph - N/A   Clear
8:52 AM 82.9 °F 81.9 °F 54.0 °F 37% 29.82 in 10.0 mi SSE 4.6 mph - N/A   Clear
9:52 AM 86.0 °F 84.2 °F 54.0 °F 33% 29.82 in 10.0 mi Calm Calm - N/A   Clear
10:52 AM 90.0 °F 87.5 °F 53.1 °F 28% 29.82 in 10.0 mi Variable 3.5 mph - N/A   Clear
11:52 AM 91.9 °F - 50.0 °F 24% 29.81 in 10.0 mi ESE 6.9 mph - N/A   Clear
12:52 PM 95.0 °F - 52.0 °F 23% 29.79 in 10.0 mi ESE 5.8 mph - N/A   Clear
1:52 PM 97.0 °F - 52.0 °F 22% 29.77 in 10.0 mi NNE 5.8 mph - N/A   Clear
2:52 PM 98.1 °F - 52.0 °F 21% 29.75 in 10.0 mi ENE 6.9 mph - N/A   Clear
3:52 PM 99.0 °F - 50.0 °F 19% 29.72 in 10.0 mi Variable 3.5 mph - N/A   Clear
4:52 PM 100.0 °F - 48.9 °F 18% 29.70 in 10.0 mi Variable 3.5 mph - N/A   Clear
5:52 PM 100.0 °F - 46.9 °F 16% 29.69 in 10.0 mi ESE 3.5 mph - N/A   Clear
6:52 PM 99.0 °F - 46.9 °F 17% 29.69 in 10.0 mi ESE 3.5 mph - N/A   Clear
7:52 PM 96.1 °F - 51.1 °F 22% 29.69 in 10.0 mi SE 3.5 mph - N/A   Clear
8:52 PM 93.0 °F - 51.1 °F 24% 29.69 in 10.0 mi South 3.5 mph - N/A   Clear
9:52 PM 91.0 °F - 48.9 °F 23% 29.71 in 10.0 mi WSW 4.6 mph - N/A   Clear
10:52 PM 91.9 °F - 52.0 °F 26% 29.71 in 10.0 mi SW 11.5 mph - N/A   Clear
11:52 PM 86.0 °F 84.0 °F 53.1 °F 32% 29.72 in 10.0 mi SSE 3.5 mph - N/A   Clear